Weather in Rishikesh

India     30°02′51″N   78°14′02″E
temp.,
°C
wind,
m/s
gust,
m/s
humid.,
%
clouds,
%
prec.,
mm/h
press.,
hPa
HPBL,
m
9 march, tue
tue923:30+19ene354825 0.0 1017139
02:30+17ene34490 0.0 1016116
05:30+16ene33460 0.0 101683
08:30+21ene34310 0.0 1017197
11:30+33sw13150 0.0 10162214
14:30+32wsw45130 0.0 10133482
17:30+29sw24170 0.0 1012107
20:30+22ene22230 0.0 101527
10 march, wed
wed1023:30+21ne33240 0.0 101654
02:30+19ne34260 0.0 1015100
05:30+17ene33281 0.0 101567
08:30+22ne33239 0.0 1016190
11:30+33sw23115 0.0 10152323
14:30+33wsw4490 0.0 10124174
17:30+30wnw25120 0.0 1011204
20:30+22ene23150 0.0 101430
11 march, thu
thu1123:30+20ene33190 0.0 101648
02:30+18ene33270 0.0 101567
05:30+17ene33270 0.0 101569
08:30+23ene34210 0.0 1016187
11:30+36ese1290 0.0 10162829
14:30+35sw3370 0.0 10124596
17:30+31ssw12120 0.0 101235
20:30+24ene23150 0.0 101531
12 march, fri
fri1223:30+22ne331717 0.0 101764
02:30+20ene341838 0.0 1016117
05:30+19ene222852 0.1 101636
08:30+25ene4919100 0.0 1019317
11:30+30e3516100 0.1 10182872
14:30+32sse531688 0.0 10163551
17:30+27nw242794 0.1 1016237
20:30+17ne4868100 3.4 1020260
13 march, sat
sat1323:30+16ene477594 4.8 1020172
02:30+15ne34730 0.0 1019110
05:30+15ene33688 0.0 101969
08:30+20ene23480 0.0 1020163
11:30+30wsw222233 0.0 10181517
14:30+31w3417100 0.0 10152568
17:30+28wnw372198 0.0 1014365
20:30+23ne2229100 0.0 101624